Regional Weather Roundup
Issued by NWS Glasgow, MT

Home | Current Version | Previous Version | Text Only | Print | Product List | Glossary On
Versions: 1 2 3 4 5 6 7 8 9 10 11 12 13 14 15 16 17 18 19 20 21 22 23 24 25 26 27 28 29 30 31 32 33 34 35 36 37 38 39 40 41 42 43 44 45 46 47 48 49 50
732
ASUS45 KGGW 270715
RWRGGW
HOURLY REGIONAL WEATHER ROUNDUP FOR NORTHEAST MONTANA
NATIONAL WEATHER SERVICE GLASGOW MONTANA
100 AM MDT FRI MAY 27 2016

NOTE: "FAIR" INDICATES FEW OR NO CLOUDS BELOW 12,000 FEET WITH NO
SIGNIFICANT WEATHER AND/OR OBSTRUCTIONS TO VISISBILITY.

NORTHEAST MONTANA


CITY           SKY/WX    TMP DP  RH WIND       PRES   REMARKS
GLASGOW        PTCLDY    51  48  89 NE8       29.87S
PLENTYWOOD       N/A     49  47  93 N5          N/A
WOLF POINT     CLOUDY    54  49  83 NE7       29.87S
JORDAN           N/A     51  50  96 N7        29.85F
WINNETT          N/A     49  46  90 NW3G12      N/A
SIDNEY         CLEAR     52  48  87 N9        29.85S
GLENDIVE       PTCLDY    48  46  93 NW6       29.86F
SCOBEY           N/A     47  40  76 CALM      29.88F HAZE
OPHEIM           N/A     46  45  93 N2        29.75F

FORT PECK REPORTS


CITY           SKY/WX    TMP DP  RH WIND       PRES   REMARKS
FORT PECK        N/A     52  51  97 N9          N/A
THE PINES        N/A     53  50  89 NE8         N/A

SOUTHEAST MONTANA


CITY           SKY/WX    TMP DP  RH WIND       PRES   REMARKS
BILLINGS       CLEAR     52  44  74 SW5       29.92S
MILES CITY     CLEAR     50  46  86 W8        29.86S
BAKER          CLEAR     45  42  89 W3        29.86F
LIVINGSTON     CLOUDY    41  38  89 N9        29.94F

CENTRAL MONTANA


CITY           SKY/WX    TMP DP  RH WIND       PRES   REMARKS
HAVRE          CLOUDY    53  49  86 NE7       29.88F
LEWISTOWN      CLEAR     44  39  82 E3        29.92F
GREAT FALLS    CLEAR     43  41  93 SW7       29.90F
CUT BANK       CLEAR     46  44  93 S3        29.88F
HELENA         MOCLDY    52  46  80 CALM      29.92S
BUTTE          CLEAR     45  41  86 VRB3      29.98S
BOZEMAN        CLOUDY    47  43  86 E6        29.95S

WESTERN MONTANA


CITY           SKY/WX    TMP DP  RH WIND       PRES   REMARKS
MISSOULA       MOCLDY    50  47  89 CALM      29.95S
KALISPELL      NOT AVBL

NORTH DAKOTA


CITY           SKY/WX    TMP DP  RH WIND       PRES   REMARKS
WILLISTON      PTCLDY    51  48  89 N9        29.86F
DICKINSON      CLEAR     46  41  82 CALM      29.82F
MINOT          CLOUDY    57  53  86 NW9       29.82F
BISMARCK       PTCLDY    48  47  96 CALM      29.84R

SOUTHERN SASKATCHEWAN


CITY           SKY/WX    TMP DP  RH WIND       PRES   REMARKS
REGINA         MOCLDY    54  52  94 W9        29.88R
MOOSE JAW      MOCLDY    54  50  87 W9        29.89S
ESTEVAN        LGT RAIN  52  52 100 NW8       29.88R
SWIFT CURRENT  CLEAR     48  46  93 S7        29.89F





USA.gov is the U.S. government's official web portal to all federal, state and local government web resources and services.